LPE2198 SPJC-SPJR

Flight info

Callsign LPE2198
Flight time 0h 54m
Altitude 34000
Route ATATU UM674 BOBUG DCT VATES
Aircraft A320/M-SDE3FGHIRWY/LB1

Departure

Time 2026-04-27 21:17
Airport Jorge Chávez International Airport (SPJC)

Arrival

Time 2026-04-27 22:11
Airport Mayor General FAP Armando Revoredo Iglesias Airport (SPJR)
Time Latitude Longitude Altitude Speed Heading
2026-04-27 20:19 -12.02734 -77.11486 81 ft 0 kts 244°
2026-04-27 20:23 -12.02733 -77.11486 81 ft 0 kts 244°
2026-04-27 20:31 -12.02733 -77.11485 81 ft 0 kts 244°
2026-04-27 20:54 -12.02733 -77.11484 81 ft 0 kts 244°
2026-04-27 21:03 -12.02729 -77.11477 86 ft 3 kts 246°
2026-04-27 21:03 -12.02722 -77.11458 85 ft 3 kts 259°
2026-04-27 21:03 -12.02720 -77.11444 86 ft 3 kts 275°
2026-04-27 21:04 -12.02722 -77.11432 85 ft 3 kts 300°
2026-04-27 21:04 -12.02733 -77.11420 87 ft 1 kts 334°
2026-04-27 21:04 -12.02735 -77.11419 86 ft 3 kts 334°
2026-04-27 21:07 -12.02731 -77.11421 82 ft 2 kts 335°
2026-04-27 21:08 -12.02702 -77.11434 84 ft 7 kts 335°
2026-04-27 21:08 -12.02658 -77.11456 85 ft 7 kts 334°
2026-04-27 21:08 -12.02629 -77.11470 82 ft 7 kts 334°
2026-04-27 21:08 -12.02584 -77.11493 86 ft 7 kts 334°
2026-04-27 21:09 -12.02538 -77.11515 83 ft 7 kts 334°
2026-04-27 21:09 -12.02491 -77.11538 83 ft 0 kts 334°
2026-04-27 21:09 -12.02489 -77.11539 83 ft 2 kts 334°
2026-04-27 21:09 -12.02473 -77.11547 83 ft 4 kts 334°
2026-04-27 21:10 -12.02444 -77.11562 80 ft 6 kts 334°
2026-04-27 21:10 -12.02394 -77.11586 82 ft 3 kts 334°
2026-04-27 21:10 -12.02351 -77.11608 81 ft 11 kts 334°
2026-04-27 21:10 -12.02302 -77.11631 81 ft 7 kts 335°
2026-04-27 21:11 -12.02243 -77.11660 71 ft 8 kts 335°
2026-04-27 21:11 -12.02184 -77.11689 69 ft 10 kts 333°
2026-04-27 21:11 -12.02138 -77.11713 71 ft 7 kts 335°
2026-04-27 21:11 -12.02087 -77.11737 69 ft 9 kts 334°
2026-04-27 21:12 -12.02028 -77.11767 67 ft 10 kts 335°
2026-04-27 21:12 -12.01959 -77.11800 63 ft 11 kts 335°
2026-04-27 21:12 -12.01905 -77.11826 65 ft 9 kts 334°
2026-04-27 21:12 -12.01847 -77.11840 63 ft 8 kts 24°
2026-04-27 21:13 -12.01816 -77.11807 63 ft 6 kts 40°
2026-04-27 21:13 -12.01763 -77.11815 65 ft 9 kts 333°
2026-04-27 21:13 -12.01709 -77.11844 58 ft 9 kts 333°
2026-04-27 21:13 -12.01654 -77.11872 61 ft 9 kts 333°
2026-04-27 21:14 -12.01603 -77.11896 56 ft 7 kts 341°
2026-04-27 21:14 -12.01568 -77.11880 62 ft 5 kts 58°
2026-04-27 21:14 -12.01560 -77.11864 64 ft 0 kts 63°
2026-04-27 21:15 -12.01550 -77.11842 63 ft 3 kts 63°
2026-04-27 21:15 -12.01541 -77.11824 64 ft 2 kts 63°
2026-04-27 21:15 -12.01530 -77.11803 59 ft 6 kts 63°
2026-04-27 21:15 -12.01515 -77.11768 60 ft 4 kts 83°
2026-04-27 21:16 -12.01533 -77.11754 66 ft 3 kts 159°
2026-04-27 21:16 -12.01581 -77.11731 60 ft 26 kts 154°
2026-04-27 21:16 -12.01996 -77.11527 68 ft 101 kts 154°
2026-04-27 21:16 -12.02812 -77.11134 109 ft 154 kts 156°
2026-04-27 21:17 -12.03786 -77.10657 677 ft 157 kts 157°
2026-04-27 21:17 -12.04799 -77.10165 1332 ft 167 kts 157°
2026-04-27 21:17 -12.05908 -77.09646 1884 ft 184 kts 156°
2026-04-27 21:17 -12.07127 -77.09046 2298 ft 205 kts 154°
2026-04-27 21:18 -12.08490 -77.08359 2768 ft 231 kts 153°
2026-04-27 21:18 -12.10011 -77.07595 3316 ft 255 kts 153°
2026-04-27 21:18 -12.11655 -77.06774 4083 ft 268 kts 154°
2026-04-27 21:18 -12.13398 -77.06040 4980 ft 275 kts 169°
2026-04-27 21:19 -12.14618 -77.06011 5506 ft 280 kts 190°
2026-04-27 21:19 -12.16047 -77.06557 5798 ft 280 kts 215°
2026-04-27 21:19 -12.17290 -77.08056 5966 ft 279 kts 249°
2026-04-27 21:20 -12.17124 -77.11956 7456 ft 284 kts 284°
2026-04-27 21:20 -12.16641 -77.13933 8341 ft 288 kts 284°
2026-04-27 21:20 -12.16149 -77.15938 9208 ft 293 kts 284°
2026-04-27 21:20 -12.15673 -77.17979 10037 ft 298 kts 280°
2026-04-27 21:21 -12.15378 -77.20148 10419 ft 320 kts 275°
2026-04-27 21:21 -12.15211 -77.22478 10867 ft 335 kts 275°
2026-04-27 21:21 -12.14759 -77.24836 11554 ft 342 kts 288°
2026-04-27 21:21 -12.13721 -77.27036 12278 ft 347 kts 304°
2026-04-27 21:22 -12.12113 -77.28856 13013 ft 352 kts 321°
2026-04-27 21:22 -12.10086 -77.30303 13736 ft 357 kts 326°
2026-04-27 21:22 -12.08011 -77.31719 14389 ft 360 kts 327°
2026-04-27 21:22 -12.05923 -77.33156 15045 ft 363 kts 327°
2026-04-27 21:23 -12.03819 -77.34619 15699 ft 366 kts 327°
2026-04-27 21:23 -12.02424 -77.35594 16123 ft 369 kts 327°
2026-04-27 21:23 -12.00299 -77.37086 16781 ft 372 kts 327°
2026-04-27 21:23 -11.98149 -77.38595 17444 ft 375 kts 327°
2026-04-27 21:24 -11.96011 -77.40092 18086 ft 378 kts 327°
2026-04-27 21:24 -11.93824 -77.41618 18655 ft 382 kts 327°
2026-04-27 21:24 -11.91621 -77.43153 19208 ft 385 kts 327°
2026-04-27 21:24 -11.89397 -77.44704 19753 ft 388 kts 327°
2026-04-27 21:25 -11.87155 -77.46271 20284 ft 392 kts 327°
2026-04-27 21:25 -11.84899 -77.47849 20815 ft 395 kts 327°
2026-04-27 21:25 -11.82645 -77.49425 21329 ft 399 kts 327°
2026-04-27 21:25 -11.80343 -77.51035 21841 ft 402 kts 327°
2026-04-27 21:26 -11.78016 -77.52660 22346 ft 406 kts 327°
2026-04-27 21:26 -11.75630 -77.54246 22841 ft 409 kts 329°
2026-04-27 21:26 -11.73212 -77.55755 23322 ft 412 kts 330°
2026-04-27 21:26 -11.69880 -77.57751 23900 ft 417 kts 330°
2026-04-27 21:27 -11.67362 -77.59246 24319 ft 419 kts 330°
2026-04-27 21:27 -11.64871 -77.60737 24745 ft 421 kts 330°
2026-04-27 21:27 -11.63167 -77.61768 25042 ft 423 kts 329°
2026-04-27 21:27 -11.60630 -77.63316 25452 ft 425 kts 329°
2026-04-27 21:28 -11.58118 -77.64858 25866 ft 427 kts 329°
2026-04-27 21:28 -11.55559 -77.66434 26290 ft 429 kts 329°
2026-04-27 21:28 -11.52990 -77.68018 26707 ft 432 kts 329°
2026-04-27 21:28 -11.50411 -77.69607 27109 ft 434 kts 329°
2026-04-27 21:29 -11.47805 -77.71208 27519 ft 437 kts 329°
2026-04-27 21:29 -11.45225 -77.72793 27919 ft 439 kts 328°
2026-04-27 21:29 -11.42600 -77.74402 28319 ft 441 kts 329°
2026-04-27 21:29 -11.39953 -77.76018 28720 ft 444 kts 329°
2026-04-27 21:30 -11.37291 -77.77643 29122 ft 446 kts 328°
2026-04-27 21:30 -11.34622 -77.79272 29518 ft 448 kts 328°
2026-04-27 21:30 -11.31937 -77.80913 29908 ft 451 kts 328°
2026-04-27 21:30 -11.29275 -77.82541 30247 ft 453 kts 328°
2026-04-27 21:31 -11.25650 -77.84761 30704 ft 455 kts 328°
2026-04-27 21:31 -11.22932 -77.86427 31051 ft 456 kts 328°
2026-04-27 21:31 -11.20226 -77.88083 31390 ft 457 kts 328°
2026-04-27 21:31 -11.17484 -77.89758 31753 ft 457 kts 328°
2026-04-27 21:32 -11.14752 -77.91424 32255 ft 454 kts 328°
2026-04-27 21:32 -11.12076 -77.93056 32771 ft 451 kts 328°
2026-04-27 21:32 -11.09377 -77.94684 33285 ft 448 kts 331°
2026-04-27 21:32 -11.06523 -77.95966 33748 ft 447 kts 340°
2026-04-27 21:33 -11.03543 -77.96739 33938 ft 447 kts 350°
2026-04-27 21:33 -11.01493 -77.96955 33971 ft 441 kts 356°
2026-04-27 21:33 -10.95467 -77.97225 33984 ft 429 kts 356°
2026-04-27 21:34 -10.88548 -77.97565 33982 ft 427 kts 356°
2026-04-27 21:34 -10.85579 -77.97717 33976 ft 427 kts 356°
2026-04-27 21:35 -10.76656 -77.98179 33991 ft 428 kts 356°
2026-04-27 21:35 -10.70734 -77.98482 33990 ft 428 kts 356°
2026-04-27 21:36 -10.64779 -77.98778 33992 ft 428 kts 356°
2026-04-27 21:36 -10.58821 -77.99074 33991 ft 428 kts 355°
2026-04-27 21:37 -10.52875 -77.99378 33998 ft 428 kts 356°
2026-04-27 21:37 -10.46946 -77.99678 34004 ft 429 kts 356°
2026-04-27 21:38 -10.40985 -77.99978 34013 ft 429 kts 356°
2026-04-27 21:38 -10.35014 -78.00280 34016 ft 429 kts 356°
2026-04-27 21:39 -10.29031 -78.00581 34027 ft 430 kts 356°
2026-04-27 21:39 -10.23049 -78.00881 34032 ft 430 kts 356°
2026-04-27 21:40 -10.17098 -78.01187 34039 ft 430 kts 356°
2026-04-27 21:40 -10.11142 -78.01489 34053 ft 430 kts 356°
2026-04-27 21:41 -10.05165 -78.01787 34062 ft 430 kts 356°
2026-04-27 21:41 -9.99172 -78.02087 34074 ft 430 kts 356°
2026-04-27 21:42 -9.93195 -78.02387 34082 ft 429 kts 356°
2026-04-27 21:42 -9.87258 -78.02685 34090 ft 429 kts 356°
2026-04-27 21:43 -9.81280 -78.02985 34102 ft 429 kts 356°
2026-04-27 21:43 -9.75351 -78.03278 34105 ft 429 kts 356°
2026-04-27 21:44 -9.69379 -78.03581 34117 ft 428 kts 356°
2026-04-27 21:44 -9.63420 -78.03889 34127 ft 428 kts 356°
2026-04-27 21:45 -9.57462 -78.04184 34131 ft 428 kts 357°
2026-04-27 21:45 -9.51540 -78.04476 34134 ft 428 kts 357°
2026-04-27 21:46 -9.45597 -78.04775 34133 ft 427 kts 357°
2026-04-27 21:46 -9.39655 -78.05075 34129 ft 428 kts 357°
2026-04-27 21:47 -9.33703 -78.05375 34129 ft 428 kts 357°
2026-04-27 21:47 -9.27746 -78.05673 34120 ft 428 kts 357°
2026-04-27 21:48 -9.21816 -78.05971 34127 ft 429 kts 357°
2026-04-27 21:48 -9.15846 -78.06270 34138 ft 429 kts 357°
2026-04-27 21:49 -9.09874 -78.06568 34149 ft 429 kts 357°
2026-04-27 21:49 -9.03927 -78.06862 34157 ft 430 kts 357°
2026-04-27 21:50 -8.97934 -78.07160 34165 ft 430 kts 357°
2026-04-27 21:50 -8.91955 -78.07462 34165 ft 430 kts 357°
2026-04-27 21:51 -8.85978 -78.07760 34172 ft 430 kts 357°
2026-04-27 21:51 -8.80031 -78.08060 34175 ft 430 kts 357°
2026-04-27 21:52 -8.75022 -78.08314 34174 ft 430 kts 357°
2026-04-27 21:52 -8.69082 -78.08617 34176 ft 429 kts 357°
2026-04-27 21:53 -8.63093 -78.08914 34171 ft 429 kts 357°
2026-04-27 21:53 -8.56154 -78.09260 34164 ft 429 kts 357°
2026-04-27 21:54 -8.51154 -78.09509 34167 ft 429 kts 357°
2026-04-27 21:54 -8.45225 -78.09799 34159 ft 428 kts 357°
2026-04-27 21:55 -8.39254 -78.10096 33911 ft 427 kts 357°
2026-04-27 21:55 -8.36289 -78.10245 33390 ft 424 kts 357°
2026-04-27 21:55 -8.33376 -78.10391 32876 ft 422 kts 357°
2026-04-27 21:56 -8.30451 -78.10538 32361 ft 419 kts 357°
2026-04-27 21:56 -8.24651 -78.10828 31357 ft 415 kts 357°
2026-04-27 21:56 -8.21777 -78.10971 30860 ft 413 kts 357°
2026-04-27 21:57 -8.18915 -78.11114 30381 ft 410 kts 357°
2026-04-27 21:57 -8.16068 -78.11258 29857 ft 408 kts 357°
2026-04-27 21:57 -8.13251 -78.11402 29390 ft 403 kts 357°
2026-04-27 21:57 -8.10455 -78.11549 28936 ft 399 kts 357°
2026-04-27 21:58 -8.07695 -78.11695 28478 ft 395 kts 358°
2026-04-27 21:58 -8.04963 -78.11839 28032 ft 391 kts 358°
2026-04-27 21:58 -8.02263 -78.11980 27585 ft 387 kts 358°
2026-04-27 21:58 -7.99575 -78.12119 27127 ft 384 kts 359°
2026-04-27 21:59 -7.96947 -78.12252 26671 ft 382 kts 359°
2026-04-27 21:59 -7.94296 -78.12384 26206 ft 380 kts 359°
2026-04-27 21:59 -7.91656 -78.12517 25737 ft 378 kts 359°
2026-04-27 21:59 -7.89025 -78.12652 25246 ft 378 kts 359°
2026-04-27 22:00 -7.86398 -78.12788 24753 ft 377 kts 359°
2026-04-27 22:00 -7.83780 -78.12922 24251 ft 376 kts 359°
2026-04-27 22:00 -7.81168 -78.13049 23739 ft 376 kts 359°
2026-04-27 22:00 -7.78550 -78.13171 23181 ft 376 kts 359°
2026-04-27 22:01 -7.75944 -78.13293 22672 ft 374 kts 359°
2026-04-27 22:01 -7.73371 -78.13417 22197 ft 372 kts 359°
2026-04-27 22:01 -7.70785 -78.13544 21712 ft 371 kts 360°
2026-04-27 22:01 -7.68198 -78.13668 21238 ft 371 kts 360°
2026-04-27 22:02 -7.65623 -78.13790 20762 ft 370 kts 360°
2026-04-27 22:02 -7.63053 -78.13910 20295 ft 369 kts 360°
2026-04-27 22:02 -7.60513 -78.14031 19827 ft 361 kts 359°
2026-04-27 22:02 -7.58046 -78.14386 19366 ft 356 kts 347°
2026-04-27 22:03 -7.55731 -78.15146 18938 ft 351 kts 343°
2026-04-27 22:03 -7.53407 -78.15946 18497 ft 346 kts 343°
2026-04-27 22:03 -7.51172 -78.16711 18045 ft 341 kts 344°
2026-04-27 22:03 -7.48939 -78.17473 17546 ft 336 kts 343°
2026-04-27 22:04 -7.46712 -78.18233 16917 ft 336 kts 343°
2026-04-27 22:04 -7.44514 -78.18984 16502 ft 330 kts 343°
2026-04-27 22:04 -7.42354 -78.19722 16115 ft 325 kts 343°
2026-04-27 22:04 -7.40257 -78.20439 15728 ft 320 kts 343°
2026-04-27 22:05 -7.38156 -78.21154 15350 ft 316 kts 343°
2026-04-27 22:05 -7.36088 -78.21859 14990 ft 311 kts 343°
2026-04-27 22:05 -7.34091 -78.22623 14649 ft 303 kts 333°
2026-04-27 22:05 -7.32437 -78.23897 14319 ft 298 kts 316°
2026-04-27 22:06 -7.30991 -78.25390 13983 ft 295 kts 314°
2026-04-27 22:06 -7.29853 -78.27084 13640 ft 291 kts 297°
2026-04-27 22:06 -7.28984 -78.28895 13297 ft 283 kts 296°
2026-04-27 22:06 -7.28147 -78.30647 12998 ft 273 kts 296°
2026-04-27 22:07 -7.27334 -78.32347 12702 ft 265 kts 296°
2026-04-27 22:07 -7.26538 -78.33998 12397 ft 258 kts 296°
2026-04-27 22:07 -7.25766 -78.35583 12103 ft 252 kts 296°
2026-04-27 22:07 -7.25001 -78.37144 11817 ft 245 kts 296°
2026-04-27 22:08 -7.24259 -78.38659 11553 ft 235 kts 296°
2026-04-27 22:08 -7.23551 -78.40109 11261 ft 224 kts 296°
2026-04-27 22:08 -7.22911 -78.41483 11004 ft 208 kts 292°
2026-04-27 22:08 -7.22392 -78.42779 10805 ft 189 kts 291°
2026-04-27 22:09 -7.21934 -78.43965 10570 ft 175 kts 293°
2026-04-27 22:09 -7.21233 -78.44923 10329 ft 169 kts 319°
2026-04-27 22:09 -7.20356 -78.45694 10070 ft 166 kts 318°
2026-04-27 22:09 -7.19479 -78.46443 9799 ft 165 kts 326°
2026-04-27 22:10 -7.18454 -78.46948 9566 ft 164 kts 335°
2026-04-27 22:10 -7.17769 -78.47255 9408 ft 163 kts 335°
2026-04-27 22:10 -7.16394 -78.47865 9147 ft 162 kts 336°
2026-04-27 22:10 -7.15365 -78.48326 9035 ft 163 kts 334°
2026-04-27 22:11 -7.14345 -78.48767 8920 ft 148 kts 337°
2026-04-27 22:11 -7.13645 -78.49068 8951 ft 66 kts 338°
2026-04-27 22:11 -7.13418 -78.49163 8955 ft 26 kts 337°
2026-04-27 22:11 -7.13257 -78.49231 8970 ft 24 kts 338°
2026-04-27 22:12 -7.13112 -78.49291 8976 ft 21 kts 337°
2026-04-27 22:12 -7.12989 -78.49347 8984 ft 18 kts 329°
2026-04-27 22:12 -7.12937 -78.49422 8989 ft 9 kts 322°
2026-04-27 22:12 -7.12904 -78.49417 8989 ft 3 kts 35°
2026-04-27 22:13 -7.12910 -78.49378 8992 ft 9 kts 142°
2026-04-27 22:13 -7.12987 -78.49343 8983 ft 15 kts 157°
2026-04-27 22:13 -7.13103 -78.49295 8976 ft 21 kts 157°
2026-04-27 22:13 -7.13250 -78.49234 8970 ft 25 kts 158°
2026-04-27 22:14 -7.13422 -78.49161 8955 ft 28 kts 157°
2026-04-27 22:14 -7.13612 -78.49081 8948 ft 31 kts 157°
2026-04-27 22:14 -7.13801 -78.49002 8935 ft 28 kts 158°
2026-04-27 22:14 -7.13960 -78.48936 8933 ft 21 kts 157°
2026-04-27 22:15 -7.14077 -78.48886 8928 ft 16 kts 158°
2026-04-27 22:15 -7.14164 -78.48851 8925 ft 10 kts 157°
2026-04-27 22:15 -7.14204 -78.48858 8924 ft 4 kts 232°
2026-04-27 22:15 -7.14208 -78.48868 8924 ft 0 kts 246°